Location: Unspecified
(0.0000°N, 0.0000°E)
Time: 18:40:11
(UTC+00:00)

deb Blok Kosmos - Pass Details

Date: 23 November 2025
Orbit: 1343 x 1638 km, 56.1° (Epoch: 01 December)

Event Time Altitude Azimuth Distance (km) Brightness Sun altitude
Rises 21:37:55 0° 227° (SW) 4,862 ? -52.4°
Reaches altitude 10° 21:41:17 10° 234° (SW) 3,872 ? -53.1°
Enters shadow 21:45:49 28° 252° (WSW) 2,720 ? -54.0°
